CHINASAT 10 (ZX 10)

Last updated on Nov. 19, 2019, 4:25 a.m. UTC

1 37677U 11026A   19321.91922774 -.00000347  00000-0  00000-0 0  9992
2 37677   0.0472 269.4715 0004586 294.3584 294.3301  1.00271708 30862
UTC
Height (km)
Latitude
Longitude
Inclination
Orbital Period
UTC large
Height (km)
Speed (km/s)
/
Latitude / Longitude
Inclination (degrees)
Orbital Period (minutes)
Azimuth
Elevation
Range (km)
Doppler Factor
iOS Compass Heading
iOS Angle

Next 30 passes for location: Hong Kong

Rise time Rise Azimuth (degrees) Set time Set Azimuth (degrees) Duration Max altitude (degrees)

No matching passes for this satellites